owner,sensor,date,latitude,longitude,vertical_datum,wind_speed,wind_to_direction,wind_speed_of_gust,qcFlag 
TCOON,ioos:station:TCOON:003:1,2015-01-01T00:00:00Z,26.8015,-97.4706,0.0,9.8,333.0,11.6,'11111222,11111222,11111222' 
TCOON,ioos:station:TCOON:003:1,2015-01-01T00:06:00Z,26.8015,-97.4706,0.0,10.0,335.0,11.2,'11111222,11111222,11111222' 
TCOON,ioos:station:TCOON:003:1,2015-01-01T00:12:00Z,26.8015,-97.4706,0.0,10.1,332.0,11.6,'11111222,11111222,11111222' 
TCOON,ioos:station:TCOON:003:1,2015-01-01T00:18:00Z,26.8015,-97.4706,0.0,10.6,332.0,11.4,'11111222,11111222,11111222' 
TCOON,ioos:station:TCOON:003:1,2015-01-01T00:24:00Z,26.8015,-97.4706,0.0,9.7,331.0,10.8,'11111222,11111222,11111222' 
TCOON,ioos:station:TCOON:003:1,2015-01-01T00:30:00Z,26.8015,-97.4706,0.0,10.1,332.0,11.1,'11111222,11111222,11111222' 
TCOON,ioos:station:TCOON:003:1,2015-01-01T00:36:00Z,26.8015,-97.4706,0.0,10.2,332.0,11.1,'11111222,11111222,11111222' 
TCOON,ioos:station:TCOON:003:1,2015-01-01T00:42:00Z,26.8015,-97.4706,0.0,10.2,332.0,11.1,'1111122,1111122,1111122' 
TCOON,ioos:station:TCOON:003:1,2015-01-01T00:48:00Z,26.8015,-97.4706,0.0,10.3,331.0,11.7,'11111222,11111222,11111222' 
TCOON,ioos:station:TCOON:003:1,2015-01-01T00:54:00Z,26.8015,-97.4706,0.0,9.4,332.0,11.1,'11111222,11111222,11111222' 
TCOON,ioos:station:TCOON:003:1,2015-01-01T01:00:00Z,26.8015,-97.4706,0.0,9.6,334.0,10.8,'11111222,11111222,11111222' 
TCOON,ioos:station:TCOON:003:1,2015-01-01T01:06:00Z,26.8015,-97.4706,0.0,9.2,333.0,10.9,'11111222,11111222,11111222' 
TCOON,ioos:station:TCOON:003:1,2015-01-01T01:12:00Z,26.8015,-97.4706,0.0,10.4,334.0,11.3,'11111222,11111222,11111222' 
TCOON,ioos:station:TCOON:003:1,2015-01-01T01:18:00Z,26.8015,-97.4706,0.0,9.8,335.0,11.0,'11111222,11111222,11111222' 
TCOON,ioos:station:TCOON:003:1,2015-01-01T01:24:00Z,26.8015,-97.4706,0.0,9.6,335.0,12.0,'11111222,11111222,11111222' 
TCOON,ioos:station:TCOON:003:1,2015-01-01T01:30:00Z,26.8015,-97.4706,0.0,9.1,337.0,11.0,'11111222,11111222,11111222' 
TCOON,ioos:station:TCOON:003:1,2015-01-01T01:36:00Z,26.8015,-97.4706,0.0,10.5,338.0,11.8,'11111222,11111222,11111222' 
TCOON,ioos:station:TCOON:003:1,2015-01-01T01:42:00Z,26.8015,-97.4706,0.0,10.5,338.0,11.8,'1111122,1111122,1111122' 
TCOON,ioos:station:TCOON:003:1,2015-01-01T01:48:00Z,26.8015,-97.4706,0.0,9.7,335.0,10.9,'11111222,11111222,11111222' 
TCOON,ioos:station:TCOON:003:1,2015-01-01T01:54:00Z,26.8015,-97.4706,0.0,8.3,338.0,11.2,'11111222,11111222,11111222' 
TCOON,ioos:station:TCOON:003:1,2015-01-01T02:00:00Z,26.8015,-97.4706,0.0,9.5,341.0,10.8,'11111222,11111222,11111222' 
TCOON,ioos:station:TCOON:003:1,2015-01-01T02:06:00Z,26.8015,-97.4706,0.0,8.6,340.0,10.5,'11111222,11111222,11111222' 
TCOON,ioos:station:TCOON:003:1,2015-01-01T02:12:00Z,26.8015,-97.4706,0.0,8.5,342.0,10.4,'11111222,11111222,11111222' 
TCOON,ioos:station:TCOON:003:1,2015-01-01T02:18:00Z,26.8015,-97.4706,0.0,8.5,337.0,10.2,'11111222,11111222,11111222' 
TCOON,ioos:station:TCOON:003:1,2015-01-01T02:24:00Z,26.8015,-97.4706,0.0,8.8,339.0,10.1,'11111222,11111222,11111222' 
TCOON,ioos:station:TCOON:003:1,2015-01-01T02:30:00Z,26.8015,-97.4706,0.0,9.4,344.0,10.5,'11111222,11111222,11111222' 
TCOON,ioos:station:TCOON:003:1,2015-01-01T02:36:00Z,26.8015,-97.4706,0.0,9.1,339.0,10.2,'11111222,11111222,11111222' 
TCOON,ioos:station:TCOON:003:1,2015-01-01T02:42:00Z,26.8015,-97.4706,0.0,10.1,333.0,11.3,'11111222,11111222,11111222' 
TCOON,ioos:station:TCOON:003:1,2015-01-01T02:48:00Z,26.8015,-97.4706,0.0,10.1,333.0,11.3,'1111122,1111122,1111122' 
TCOON,ioos:station:TCOON:003:1,2015-01-01T02:54:00Z,26.8015,-97.4706,0.0,10.0,333.0,11.6,'11111222,11111222,11111222' 
TCOON,ioos:station:TCOON:003:1,2015-01-01T03:00:00Z,26.8015,-97.4706,0.0,9.4,331.0,10.8,'11111222,11111222,11111222' 
TCOON,ioos:station:TCOON:003:1,2015-01-01T03:06:00Z,26.8015,-97.4706,0.0,10.3,335.0,11.5,'11111222,11111222,11111222' 
TCOON,ioos:station:TCOON:003:1,2015-01-01T03:12:00Z,26.8015,-97.4706,0.0,9.2,336.0,11.7,'11111222,11111222,11111222' 
TCOON,ioos:station:TCOON:003:1,2015-01-01T03:18:00Z,26.8015,-97.4706,0.0,9.7,340.0,11.1,'11111222,11111222,11111222' 
TCOON,ioos:station:TCOON:003:1,2015-01-01T03:24:00Z,26.8015,-97.4706,0.0,9.8,339.0,11.3,'11111222,11111222,11111222' 
TCOON,ioos:station:TCOON:003:1,2015-01-01T03:30:00Z,26.8015,-97.4706,0.0,10.0,340.0,11.5,'11111222,11111222,11111222' 
TCOON,ioos:station:TCOON:003:1,2015-01-01T03:36:00Z,26.8015,-97.4706,0.0,11.1,341.0,12.2,'11111222,11111222,11111222' 
TCOON,ioos:station:TCOON:003:1,2015-01-01T03:42:00Z,26.8015,-97.4706,0.0,11.1,341.0,12.2,'1111122,1111122,1111122' 
TCOON,ioos:station:TCOON:003:1,2015-01-01T03:48:00Z,26.8015,-97.4706,0.0,10.7,340.0,12.3,'11111222,11111222,11111222' 
TCOON,ioos:station:TCOON:003:1,2015-01-01T03:54:00Z,26.8015,-97.4706,0.0,9.5,339.0,12.3,'11111222,11111222,11111222' 
TCOON,ioos:station:TCOON:003:1,2015-01-01T04:00:00Z,26.8015,-97.4706,0.0,10.1,340.0,11.3,'11111222,11111222,11111222' 
TCOON,ioos:station:TCOON:003:1,2015-01-01T04:06:00Z,26.8015,-97.4706,0.0,10.2,337.0,11.8,'11111222,11111222,11111222' 
TCOON,ioos:station:TCOON:003:1,2015-01-01T04:12:00Z,26.8015,-97.4706,0.0,10.1,335.0,11.2,'11111222,11111222,11111222' 
TCOON,ioos:station:TCOON:003:1,2015-01-01T04:18:00Z,26.8015,-97.4706,0.0,11.0,334.0,12.3,'11111222,11111222,11111222' 
TCOON,ioos:station:TCOON:003:1,2015-01-01T04:24:00Z,26.8015,-97.4706,0.0,10.2,339.0,11.8,'11111222,11111222,11111222' 
TCOON,ioos:station:TCOON:003:1,2015-01-01T04:30:00Z,26.8015,-97.4706,0.0,9.5,338.0,11.4,'11111222,11111222,11111222' 
TCOON,ioos:station:TCOON:003:1,2015-01-01T04:36:00Z,26.8015,-97.4706,0.0,10.4,344.0,11.7,'11111222,11111222,11111222' 
TCOON,ioos:station:TCOON:003:1,2015-01-01T04:42:00Z,26.8015,-97.4706,0.0,10.4,344.0,11.7,'1111122,1111122,1111122' 
TCOON,ioos:station:TCOON:003:1,2015-01-01T04:48:00Z,26.8015,-97.4706,0.0,10.0,340.0,12.0,'11111222,11111222,11111222' 
TCOON,ioos:station:TCOON:003:1,2015-01-01T04:54:00Z,26.8015,-97.4706,0.0,10.4,340.0,12.5,'11111222,11111222,11111222' 
TCOON,ioos:station:TCOON:003:1,2015-01-01T05:00:00Z,26.8015,-97.4706,0.0,9.9,341.0,11.7,'11111222,11111222,11111222' 
TCOON,ioos:station:TCOON:003:1,2015-01-01T05:06:00Z,26.8015,-97.4706,0.0,9.9,340.0,11.4,'11111222,11111222,11111222' 
TCOON,ioos:station:TCOON:003:1,2015-01-01T05:12:00Z,26.8015,-97.4706,0.0,10.3,341.0,11.8,'11111222,11111222,11111222' 
TCOON,ioos:station:TCOON:003:1,2015-01-01T05:18:00Z,26.8015,-97.4706,0.0,10.6,340.0,11.9,'11111222,11111222,11111222' 
TCOON,ioos:station:TCOON:003:1,2015-01-01T05:24:00Z,26.8015,-97.4706,0.0,9.6,341.0,11.3,'11111222,11111222,11111222' 
TCOON,ioos:station:TCOON:003:1,2015-01-01T05:30:00Z,26.8015,-97.4706,0.0,10.1,344.0,11.7,'11111222,11111222,11111222' 
TCOON,ioos:station:TCOON:003:1,2015-01-01T05:36:00Z,26.8015,-97.4706,0.0,9.4,341.0,11.5,'11111222,11111222,11111222' 
TCOON,ioos:station:TCOON:003:1,2015-01-01T05:42:00Z,26.8015,-97.4706,0.0,9.4,341.0,11.5,'1111122,1111122,1111122' 
TCOON,ioos:station:TCOON:003:1,2015-01-01T05:48:00Z,26.8015,-97.4706,0.0,10.2,343.0,11.8,'11111222,11111222,11111222' 
TCOON,ioos:station:TCOON:003:1,2015-01-01T05:54:00Z,26.8015,-97.4706,0.0,9.9,345.0,11.9,'11111222,11111222,11111222' 
TCOON,ioos:station:TCOON:003:1,2015-01-01T06:00:00Z,26.8015,-97.4706,0.0,8.6,343.0,10.3,'11111222,11111222,11111222' 
TCOON,ioos:station:TCOON:003:1,2015-01-01T06:06:00Z,26.8015,-97.4706,0.0,9.0,344.0,10.6,'11111222,11111222,11111222' 
TCOON,ioos:station:TCOON:003:1,2015-01-01T06:12:00Z,26.8015,-97.4706,0.0,9.3,340.0,11.3,'11111222,11111222,11111222' 
TCOON,ioos:station:TCOON:003:1,2015-01-01T06:18:00Z,26.8015,-97.4706,0.0,9.4,341.0,11.1,'11111222,11111222,11111222' 
TCOON,ioos:station:TCOON:003:1,2015-01-01T06:24:00Z,26.8015,-97.4706,0.0,9.2,338.0,11.8,'11111222,11111222,11111222' 
TCOON,ioos:station:TCOON:003:1,2015-01-01T06:30:00Z,26.8015,-97.4706,0.0,9.8,344.0,11.1,'11111222,11111222,11111222' 
TCOON,ioos:station:TCOON:003:1,2015-01-01T06:36:00Z,26.8015,-97.4706,0.0,9.4,343.0,11.0,'11111222,11111222,11111222' 
TCOON,ioos:station:TCOON:003:1,2015-01-01T06:42:00Z,26.8015,-97.4706,0.0,8.8,341.0,10.9,'11111222,11111222,11111222' 
TCOON,ioos:station:TCOON:003:1,2015-01-01T06:48:00Z,26.8015,-97.4706,0.0,8.8,341.0,10.9,'1111122,1111122,1111122' 
TCOON,ioos:station:TCOON:003:1,2015-01-01T06:54:00Z,26.8015,-97.4706,0.0,9.8,339.0,10.9,'11111222,11111222,11111222' 
TCOON,ioos:station:TCOON:003:1,2015-01-01T07:00:00Z,26.8015,-97.4706,0.0,10.4,339.0,11.6,'11111222,11111222,11111222' 
TCOON,ioos:station:TCOON:003:1,2015-01-01T07:06:00Z,26.8015,-97.4706,0.0,9.9,340.0,11.9,'11111222,11111222,11111222' 
TCOON,ioos:station:TCOON:003:1,2015-01-01T07:12:00Z,26.8015,-97.4706,0.0,9.0,339.0,10.8,'11111222,11111222,11111222' 
TCOON,ioos:station:TCOON:003:1,2015-01-01T07:18:00Z,26.8015,-97.4706,0.0,9.0,340.0,10.7,'11111222,11111222,11111222' 
TCOON,ioos:station:TCOON:003:1,2015-01-01T07:24:00Z,26.8015,-97.4706,0.0,8.7,340.0,10.4,'11111222,11111222,11111222' 
TCOON,ioos:station:TCOON:003:1,2015-01-01T07:30:00Z,26.8015,-97.4706,0.0,8.8,338.0,11.0,'11111222,11111222,11111222' 
TCOON,ioos:station:TCOON:003:1,2015-01-01T07:36:00Z,26.8015,-97.4706,0.0,9.1,343.0,10.6,'11111222,11111222,11111222' 
TCOON,ioos:station:TCOON:003:1,2015-01-01T07:42:00Z,26.8015,-97.4706,0.0,8.8,340.0,10.1,'11111222,11111222,11111222' 
TCOON,ioos:station:TCOON:003:1,2015-01-01T07:48:00Z,26.8015,-97.4706,0.0,8.8,339.0,11.0,'11111222,11111222,11111222' 
TCOON,ioos:station:TCOON:003:1,2015-01-01T07:54:00Z,26.8015,-97.4706,0.0,8.8,339.0,11.0,'1111122,1111122,1111122' 
TCOON,ioos:station:TCOON:003:1,2015-01-01T08:00:00Z,26.8015,-97.4706,0.0,9.4,338.0,11.1,'11111222,11111222,11111222' 
TCOON,ioos:station:TCOON:003:1,2015-01-01T08:06:00Z,26.8015,-97.4706,0.0,8.8,335.0,10.0,'11111222,11111222,11111222' 
TCOON,ioos:station:TCOON:003:1,2015-01-01T08:12:00Z,26.8015,-97.4706,0.0,8.9,335.0,10.0,'11111222,11111222,11111222' 
TCOON,ioos:station:TCOON:003:1,2015-01-01T08:18:00Z,26.8015,-97.4706,0.0,8.5,338.0,10.1,'11111222,11111222,11111222' 
TCOON,ioos:station:TCOON:003:1,2015-01-01T08:24:00Z,26.8015,-97.4706,0.0,8.8,335.0,10.2,'11111222,11111222,11111222' 
TCOON,ioos:station:TCOON:003:1,2015-01-01T08:30:00Z,26.8015,-97.4706,0.0,8.7,331.0,9.8,'11111222,11111222,11111222' 
TCOON,ioos:station:TCOON:003:1,2015-01-01T08:36:00Z,26.8015,-97.4706,0.0,8.7,331.0,9.8,'1111122,1111122,1111122' 
TCOON,ioos:station:TCOON:003:1,2015-01-01T08:42:00Z,26.8015,-97.4706,0.0,7.8,333.0,9.5,'11111222,11111222,11111222' 
TCOON,ioos:station:TCOON:003:1,2015-01-01T08:48:00Z,26.8015,-97.4706,0.0,6.6,335.0,8.9,'11111222,11111222,11111222' 
TCOON,ioos:station:TCOON:003:1,2015-01-01T08:54:00Z,26.8015,-97.4706,0.0,6.9,334.0,8.3,'11111222,11111222,11111222' 
TCOON,ioos:station:TCOON:003:1,2015-01-01T09:00:00Z,26.8015,-97.4706,0.0,7.7,332.0,8.5,'11111222,11111222,11111222' 
TCOON,ioos:station:TCOON:003:1,2015-01-01T09:06:00Z,26.8015,-97.4706,0.0,8.0,328.0,8.8,'11111222,11111222,11111222' 
TCOON,ioos:station:TCOON:003:1,2015-01-01T09:12:00Z,26.8015,-97.4706,0.0,8.0,327.0,9.2,'11111222,11111222,11111222' 
TCOON,ioos:station:TCOON:003:1,2015-01-01T09:18:00Z,26.8015,-97.4706,0.0,8.7,325.0,9.9,'11111222,11111222,11111222' 
TCOON,ioos:station:TCOON:003:1,2015-01-01T09:24:00Z,26.8015,-97.4706,0.0,8.1,325.0,9.9,'11111222,11111222,11111222' 
TCOON,ioos:station:TCOON:003:1,2015-01-01T09:30:00Z,26.8015,-97.4706,0.0,8.7,326.0,9.7,'11111222,11111222,11111222' 
TCOON,ioos:station:TCOON:003:1,2015-01-01T09:36:00Z,26.8015,-97.4706,0.0,9.1,324.0,9.9,'11111222,11111222,11111222' 
TCOON,ioos:station:TCOON:003:1,2015-01-01T09:42:00Z,26.8015,-97.4706,0.0,9.1,324.0,9.9,'1111122,1111122,1111122' 
TCOON,ioos:station:TCOON:003:1,2015-01-01T09:48:00Z,26.8015,-97.4706,0.0,8.8,321.0,9.9,'11111222,11111222,11111222' 
TCOON,ioos:station:TCOON:003:1,2015-01-01T09:54:00Z,26.8015,-97.4706,0.0,9.0,323.0,10.4,'11111222,11111222,11111222' 
TCOON,ioos:station:TCOON:003:1,2015-01-01T10:00:00Z,26.8015,-97.4706,0.0,9.1,323.0,10.2,'11111222,11111222,11111222' 
TCOON,ioos:station:TCOON:003:1,2015-01-01T10:06:00Z,26.8015,-97.4706,0.0,8.6,320.0,10.6,'11111222,11111222,11111222' 
TCOON,ioos:station:TCOON:003:1,2015-01-01T10:12:00Z,26.8015,-97.4706,0.0,8.8,318.0,10.2,'11111222,11111222,11111222' 
TCOON,ioos:station:TCOON:003:1,2015-01-01T10:18:00Z,26.8015,-97.4706,0.0,9.2,326.0,10.4,'11111222,11111222,11111222' 
TCOON,ioos:station:TCOON:003:1,2015-01-01T10:24:00Z,26.8015,-97.4706,0.0,9.1,324.0,10.4,'11111222,11111222,11111222' 
TCOON,ioos:station:TCOON:003:1,2015-01-01T10:30:00Z,26.8015,-97.4706,0.0,8.2,324.0,9.4,'11111222,11111222,11111222' 
TCOON,ioos:station:TCOON:003:1,2015-01-01T10:36:00Z,26.8015,-97.4706,0.0,8.2,324.0,9.4,'1111122,1111122,1111122' 
TCOON,ioos:station:TCOON:003:1,2015-01-01T10:42:00Z,26.8015,-97.4706,0.0,8.8,326.0,10.0,'11111222,11111222,11111222' 
TCOON,ioos:station:TCOON:003:1,2015-01-01T10:48:00Z,26.8015,-97.4706,0.0,9.2,326.0,10.4,'11111222,11111222,11111222' 
TCOON,ioos:station:TCOON:003:1,2015-01-01T10:54:00Z,26.8015,-97.4706,0.0,9.2,328.0,10.8,'11111222,11111222,11111222' 
TCOON,ioos:station:TCOON:003:1,2015-01-01T11:00:00Z,26.8015,-97.4706,0.0,8.8,328.0,10.4,'11111222,11111222,11111222' 
TCOON,ioos:station:TCOON:003:1,2015-01-01T11:06:00Z,26.8015,-97.4706,0.0,9.7,327.0,11.3,'11111222,11111222,11111222' 
TCOON,ioos:station:TCOON:003:1,2015-01-01T11:12:00Z,26.8015,-97.4706,0.0,9.7,330.0,11.0,'11111222,11111222,11111222' 
TCOON,ioos:station:TCOON:003:1,2015-01-01T11:18:00Z,26.8015,-97.4706,0.0,10.0,332.0,11.7,'11111222,11111222,11111222' 
TCOON,ioos:station:TCOON:003:1,2015-01-01T11:24:00Z,26.8015,-97.4706,0.0,9.7,332.0,11.4,'11111222,11111222,11111222' 
TCOON,ioos:station:TCOON:003:1,2015-01-01T11:30:00Z,26.8015,-97.4706,0.0,9.6,330.0,10.6,'11111222,11111222,11111222' 
TCOON,ioos:station:TCOON:003:1,2015-01-01T11:36:00Z,26.8015,-97.4706,0.0,9.7,331.0,10.8,'11111222,11111222,11111222' 
TCOON,ioos:station:TCOON:003:1,2015-01-01T11:42:00Z,26.8015,-97.4706,0.0,9.4,334.0,11.3,'11111222,11111222,11111222' 
TCOON,ioos:station:TCOON:003:1,2015-01-01T11:54:00Z,26.8015,-97.4706,0.0,9.4,335.0,10.3,'1111122,1111122,1111122' 
TCOON,ioos:station:TCOON:003:1,2015-01-01T12:00:00Z,26.8015,-97.4706,0.0,9.3,332.0,10.3,'11111222,11111222,11111222' 
TCOON,ioos:station:TCOON:003:1,2015-01-01T12:06:00Z,26.8015,-97.4706,0.0,9.9,331.0,11.2,'11111222,11111222,11111222' 
TCOON,ioos:station:TCOON:003:1,2015-01-01T12:12:00Z,26.8015,-97.4706,0.0,9.2,328.0,11.0,'11111222,11111222,11111222' 
TCOON,ioos:station:TCOON:003:1,2015-01-01T12:18:00Z,26.8015,-97.4706,0.0,9.5,325.0,10.6,'11111222,11111222,11111222' 
TCOON,ioos:station:TCOON:003:1,2015-01-01T12:24:00Z,26.8015,-97.4706,0.0,9.2,329.0,10.7,'11111222,11111222,11111222' 
TCOON,ioos:station:TCOON:003:1,2015-01-01T12:30:00Z,26.8015,-97.4706,0.0,9.7,329.0,10.9,'11111222,11111222,11111222' 
TCOON,ioos:station:TCOON:003:1,2015-01-01T12:36:00Z,26.8015,-97.4706,0.0,10.3,331.0,11.7,'11111222,11111222,11111222' 
TCOON,ioos:station:TCOON:003:1,2015-01-01T12:42:00Z,26.8015,-97.4706,0.0,9.5,334.0,11.1,'11111222,11111222,11111222' 
TCOON,ioos:station:TCOON:003:1,2015-01-01T12:48:00Z,26.8015,-97.4706,0.0,9.5,334.0,11.1,'1111122,1111122,1111122' 
TCOON,ioos:station:TCOON:003:1,2015-01-01T12:54:00Z,26.8015,-97.4706,0.0,9.2,329.0,10.4,'11111222,11111222,11111222' 
TCOON,ioos:station:TCOON:003:1,2015-01-01T13:00:00Z,26.8015,-97.4706,0.0,9.4,331.0,11.2,'11111222,11111222,11111222' 
TCOON,ioos:station:TCOON:003:1,2015-01-01T13:06:00Z,26.8015,-97.4706,0.0,9.6,333.0,11.0,'11111222,11111222,11111222' 
TCOON,ioos:station:TCOON:003:1,2015-01-01T13:12:00Z,26.8015,-97.4706,0.0,8.8,331.0,11.0,'11111222,11111222,11111222' 
TCOON,ioos:station:TCOON:003:1,2015-01-01T13:18:00Z,26.8015,-97.4706,0.0,8.6,335.0,10.3,'11111222,11111222,11111222' 
TCOON,ioos:station:TCOON:003:1,2015-01-01T13:24:00Z,26.8015,-97.4706,0.0,8.7,333.0,10.1,'11111222,11111222,11111222' 
TCOON,ioos:station:TCOON:003:1,2015-01-01T13:30:00Z,26.8015,-97.4706,0.0,8.4,336.0,9.9,'11111222,11111222,11111222' 
TCOON,ioos:station:TCOON:003:1,2015-01-01T13:36:00Z,26.8015,-97.4706,0.0,8.2,334.0,9.5,'11111222,11111222,11111222' 
TCOON,ioos:station:TCOON:003:1,2015-01-01T13:42:00Z,26.8015,-97.4706,0.0,9.1,335.0,10.3,'11111222,11111222,11111222' 
TCOON,ioos:station:TCOON:003:1,2015-01-01T13:48:00Z,26.8015,-97.4706,0.0,9.1,335.0,10.3,'1111122,1111122,1111122' 
TCOON,ioos:station:TCOON:003:1,2015-01-01T13:54:00Z,26.8015,-97.4706,0.0,9.0,332.0,10.8,'11111222,11111222,11111222' 
TCOON,ioos:station:TCOON:003:1,2015-01-01T14:00:00Z,26.8015,-97.4706,0.0,8.7,339.0,10.1,'11111222,11111222,11111222' 
TCOON,ioos:station:TCOON:003:1,2015-01-01T14:06:00Z,26.8015,-97.4706,0.0,8.4,337.0,9.8,'11111222,11111222,11111222' 
TCOON,ioos:station:TCOON:003:1,2015-01-01T14:12:00Z,26.8015,-97.4706,0.0,8.7,340.0,9.6,'11111222,11111222,11111222' 
TCOON,ioos:station:TCOON:003:1,2015-01-01T14:18:00Z,26.8015,-97.4706,0.0,8.5,340.0,9.7,'11111222,11111222,11111222' 
TCOON,ioos:station:TCOON:003:1,2015-01-01T14:24:00Z,26.8015,-97.4706,0.0,9.8,342.0,11.1,'11111222,11111222,11111222' 
TCOON,ioos:station:TCOON:003:1,2015-01-01T14:30:00Z,26.8015,-97.4706,0.0,9.3,342.0,10.9,'11111222,11111222,11111222' 
TCOON,ioos:station:TCOON:003:1,2015-01-01T14:36:00Z,26.8015,-97.4706,0.0,9.0,343.0,10.5,'11111222,11111222,11111222' 
TCOON,ioos:station:TCOON:003:1,2015-01-01T14:42:00Z,26.8015,-97.4706,0.0,9.0,343.0,10.3,'11111222,11111222,11111222' 
TCOON,ioos:station:TCOON:003:1,2015-01-01T14:48:00Z,26.8015,-97.4706,0.0,9.0,343.0,10.3,'1111122,1111122,1111122' 
TCOON,ioos:station:TCOON:003:1,2015-01-01T14:54:00Z,26.8015,-97.4706,0.0,8.8,347.0,10.2,'11111222,11111222,11111222' 
TCOON,ioos:station:TCOON:003:1,2015-01-01T15:00:00Z,26.8015,-97.4706,0.0,9.5,349.0,10.6,'11111222,11111222,11111222' 
TCOON,ioos:station:TCOON:003:1,2015-01-01T15:06:00Z,26.8015,-97.4706,0.0,8.3,351.0,10.1,'11111222,11111222,11111222' 
TCOON,ioos:station:TCOON:003:1,2015-01-01T15:12:00Z,26.8015,-97.4706,0.0,7.8,347.0,10.0,'11111222,11111222,11111222' 
TCOON,ioos:station:TCOON:003:1,2015-01-01T15:18:00Z,26.8015,-97.4706,0.0,8.0,343.0,9.1,'11111222,11111222,11111222' 
TCOON,ioos:station:TCOON:003:1,2015-01-01T15:24:00Z,26.8015,-97.4706,0.0,8.7,337.0,9.6,'11111222,11111222,11111222' 
TCOON,ioos:station:TCOON:003:1,2015-01-01T15:30:00Z,26.8015,-97.4706,0.0,8.4,335.0,9.9,'11111222,11111222,11111222' 
TCOON,ioos:station:TCOON:003:1,2015-01-01T15:36:00Z,26.8015,-97.4706,0.0,8.9,338.0,9.9,'11111222,11111222,11111222' 
TCOON,ioos:station:TCOON:003:1,2015-01-01T15:42:00Z,26.8015,-97.4706,0.0,8.2,335.0,10.0,'11111222,11111222,11111222' 
TCOON,ioos:station:TCOON:003:1,2015-01-01T15:48:00Z,26.8015,-97.4706,0.0,8.1,332.0,9.0,'11111222,11111222,11111222' 
TCOON,ioos:station:TCOON:003:1,2015-01-01T15:54:00Z,26.8015,-97.4706,0.0,8.1,332.0,9.0,'1111122,1111122,1111122' 
TCOON,ioos:station:TCOON:003:1,2015-01-01T16:00:00Z,26.8015,-97.4706,0.0,7.4,335.0,8.8,'11111222,11111222,11111222' 
TCOON,ioos:station:TCOON:003:1,2015-01-01T16:06:00Z,26.8015,-97.4706,0.0,8.1,336.0,9.6,'11111222,11111222,11111222' 
TCOON,ioos:station:TCOON:003:1,2015-01-01T16:12:00Z,26.8015,-97.4706,0.0,7.6,338.0,8.6,'11111222,11111222,11111222' 
TCOON,ioos:station:TCOON:003:1,2015-01-01T16:18:00Z,26.8015,-97.4706,0.0,7.9,338.0,8.7,'11111222,11111222,11111222' 
TCOON,ioos:station:TCOON:003:1,2015-01-01T16:24:00Z,26.8015,-97.4706,0.0,7.6,334.0,8.9,'11111222,11111222,11111222' 
TCOON,ioos:station:TCOON:003:1,2015-01-01T16:30:00Z,26.8015,-97.4706,0.0,7.4,336.0,8.6,'11111222,11111222,11111222' 
TCOON,ioos:station:TCOON:003:1,2015-01-01T16:36:00Z,26.8015,-97.4706,0.0,7.7,343.0,9.0,'11111222,11111222,11111222' 
TCOON,ioos:station:TCOON:003:1,2015-01-01T16:42:00Z,26.8015,-97.4706,0.0,7.6,341.0,9.0,'11111222,11111222,11111222' 
TCOON,ioos:station:TCOON:003:1,2015-01-01T16:48:00Z,26.8015,-97.4706,0.0,7.2,347.0,8.5,'11111222,11111222,11111222' 
TCOON,ioos:station:TCOON:003:1,2015-01-01T16:54:00Z,26.8015,-97.4706,0.0,7.2,347.0,8.5,'1111122,1111122,1111122' 
TCOON,ioos:station:TCOON:003:1,2015-01-01T17:00:00Z,26.8015,-97.4706,0.0,8.2,335.0,8.8,'11111222,11111222,11111222' 
TCOON,ioos:station:TCOON:003:1,2015-01-01T17:06:00Z,26.8015,-97.4706,0.0,8.3,333.0,9.2,'11111222,11111222,11111222' 
TCOON,ioos:station:TCOON:003:1,2015-01-01T17:12:00Z,26.8015,-97.4706,0.0,7.9,332.0,9.4,'11111222,11111222,11111222' 
TCOON,ioos:station:TCOON:003:1,2015-01-01T17:18:00Z,26.8015,-97.4706,0.0,7.8,331.0,8.9,'11111222,11111222,11111222' 
TCOON,ioos:station:TCOON:003:1,2015-01-01T17:24:00Z,26.8015,-97.4706,0.0,8.6,332.0,9.6,'11111222,11111222,11111222' 
TCOON,ioos:station:TCOON:003:1,2015-01-01T17:30:00Z,26.8015,-97.4706,0.0,8.0,331.0,9.3,'11111222,11111222,11111222' 
TCOON,ioos:station:TCOON:003:1,2015-01-01T17:36:00Z,26.8015,-97.4706,0.0,7.9,330.0,9.1,'11111222,11111222,11111222' 
TCOON,ioos:station:TCOON:003:1,2015-01-01T17:42:00Z,26.8015,-97.4706,0.0,8.0,327.0,8.9,'11111222,11111222,11111222' 
TCOON,ioos:station:TCOON:003:1,2015-01-01T17:48:00Z,26.8015,-97.4706,0.0,8.0,327.0,8.9,'1111122,1111122,1111122' 
TCOON,ioos:station:TCOON:003:1,2015-01-01T17:54:00Z,26.8015,-97.4706,0.0,7.0,326.0,9.7,'11111222,11111222,11111222' 
TCOON,ioos:station:TCOON:003:1,2015-01-01T18:00:00Z,26.8015,-97.4706,0.0,7.1,330.0,8.8,'11111222,11111222,11111222' 
TCOON,ioos:station:TCOON:003:1,2015-01-01T18:06:00Z,26.8015,-97.4706,0.0,7.9,330.0,8.9,'11111222,11111222,11111222' 
TCOON,ioos:station:TCOON:003:1,2015-01-01T18:12:00Z,26.8015,-97.4706,0.0,7.3,328.0,8.6,'11111222,11111222,11111222' 
TCOON,ioos:station:TCOON:003:1,2015-01-01T18:18:00Z,26.8015,-97.4706,0.0,7.7,323.0,8.9,'11111222,11111222,11111222' 
TCOON,ioos:station:TCOON:003:1,2015-01-01T18:24:00Z,26.8015,-97.4706,0.0,7.2,323.0,8.5,'11111222,11111222,11111222' 
TCOON,ioos:station:TCOON:003:1,2015-01-01T18:30:00Z,26.8015,-97.4706,0.0,7.1,330.0,8.2,'11111222,11111222,11111222' 
TCOON,ioos:station:TCOON:003:1,2015-01-01T18:36:00Z,26.8015,-97.4706,0.0,7.0,325.0,8.0,'11111222,11111222,11111222' 
TCOON,ioos:station:TCOON:003:1,2015-01-01T18:42:00Z,26.8015,-97.4706,0.0,7.2,324.0,8.1,'11111222,11111222,11111222' 
TCOON,ioos:station:TCOON:003:1,2015-01-01T18:48:00Z,26.8015,-97.4706,0.0,7.2,324.0,8.1,'1111122,1111122,1111122' 
TCOON,ioos:station:TCOON:003:1,2015-01-01T18:54:00Z,26.8015,-97.4706,0.0,6.8,329.0,7.9,'11111222,11111222,11111222' 
TCOON,ioos:station:TCOON:003:1,2015-01-01T19:00:00Z,26.8015,-97.4706,0.0,6.9,333.0,7.9,'11111222,11111222,11111222' 
TCOON,ioos:station:TCOON:003:1,2015-01-01T19:06:00Z,26.8015,-97.4706,0.0,7.4,328.0,8.3,'11111222,11111222,11111222' 
TCOON,ioos:station:TCOON:003:1,2015-01-01T19:12:00Z,26.8015,-97.4706,0.0,7.6,338.0,8.7,'11111222,11111222,11111222' 
TCOON,ioos:station:TCOON:003:1,2015-01-01T19:18:00Z,26.8015,-97.4706,0.0,7.5,339.0,8.6,'11111222,11111222,11111222' 
TCOON,ioos:station:TCOON:003:1,2015-01-01T19:24:00Z,26.8015,-97.4706,0.0,6.9,332.0,8.0,'11111222,11111222,11111222' 
TCOON,ioos:station:TCOON:003:1,2015-01-01T19:30:00Z,26.8015,-97.4706,0.0,7.0,328.0,7.9,'11111222,11111222,11111222' 
TCOON,ioos:station:TCOON:003:1,2015-01-01T19:36:00Z,26.8015,-97.4706,0.0,6.2,330.0,7.9,'11111222,11111222,11111222' 
TCOON,ioos:station:TCOON:003:1,2015-01-01T19:42:00Z,26.8015,-97.4706,0.0,7.0,331.0,7.9,'11111222,11111222,11111222' 
TCOON,ioos:station:TCOON:003:1,2015-01-01T19:48:00Z,26.8015,-97.4706,0.0,7.0,331.0,7.9,'1111122,1111122,1111122' 
TCOON,ioos:station:TCOON:003:1,2015-01-01T20:06:00Z,26.8015,-97.4706,0.0,7.1,324.0,8.0,'11111222,11111222,11111222' 
TCOON,ioos:station:TCOON:003:1,2015-01-01T20:12:00Z,26.8015,-97.4706,0.0,6.8,334.0,8.6,'11111222,11111222,11111222' 
TCOON,ioos:station:TCOON:003:1,2015-01-01T20:18:00Z,26.8015,-97.4706,0.0,7.0,332.0,8.2,'11111222,11111222,11111222' 
TCOON,ioos:station:TCOON:003:1,2015-01-01T20:24:00Z,26.8015,-97.4706,0.0,7.0,331.0,8.1,'11111222,11111222,11111222' 
TCOON,ioos:station:TCOON:003:1,2015-01-01T20:30:00Z,26.8015,-97.4706,0.0,7.7,332.0,8.5,'11111222,11111222,11111222' 